Home   Weather   Chesterfield   Past weeks
Flag for United Kingdom

Past Weather in Chesterfield, England, United Kingdom — Yesterday and Last 2 Weeks

Now
44 °F

Quite cool.


Feels Like: 39 °F
Forecast: N/A
Wind: 9 mph from Northeast

Location: Nottingham Weather Centre

Current Time: Nov 17, 2019 at 7:48:16 pm

Latest Report: Nov 17, 2019 at 7:00 pm


Visibility: 19 mi

Pressure: 29.98 "Hg

Humidity: 92%

Dew Point: 42 °F

Location of ChesterfieldLocation

Past Weather in Chesterfield — Graph

°F

Chesterfield Temperature Yesterday

Maximum temperature yesterday: 47 °F (at 2:00 pm)
Minimum temperature yesterday: 43 °F (at 7:00 am)
Average temperature yesterday: 45 °F

High & Low Weather Summary for the Past Weeks

 TemperatureHumidityPressure
High51 °F (Nov 3, 2:00 pm)100% (Nov 17, 8:00 am)30.00 "Hg (Nov 17, 8:00 am)
Low29 °F (Nov 9, 8:00 am)70% (Nov 10, 3:00 pm)28.76 "Hg (Nov 2, 6:00 pm)
Average42 °F92%29.52 "Hg
* Reported Nov 2 6:00 pm — Nov 17 6:00 pm, Chesterfield. Weather by CustomWeather, © 2019

Note: Actual official high and low records may vary slightly from our data, if they occured in-between our weather recording intervals... More about our weather records

Advertising

Chesterfield Weather History for the Previous 24 Hours

Scroll right to see more
 ConditionsComfort  
Time TempWeatherWind HumidityBarometerVisibility
6:00 pm
Sun, Nov 17
45 °FQuite cool.13 mph94%29.96 "Hg11 mi
5:00 pm45 °FLight rain. Overcast.12 mph95%29.96 "Hg5 mi
4:00 pm45 °FDrizzle. Cloudy.9 mph97%29.93 "Hg2 mi
3:00 pm45 °FLight freezing rain. Cloudy.9 mph97%29.91 "Hg6 mi
2:00 pm46 °FCool.10 mph97%29.89 "Hg3 mi
1:00 pm46 °FLight rain. Cloudy.9 mph97%29.88 "Hg2 mi
12:00 pm46 °FRain showers. Cloudy.8 mph99%29.88 "Hg2 mi
11:00 am45 °FLight rain. Cloudy.3 mph100%29.88 "Hg2 mi
10:00 am44 °FLight freezing rain. Cloudy.1 mph99%29.88 "Hg2 mi
9:00 am44 °FLots of rain. Cloudy.2 mph99%29.86 "Hg1 mi
8:00 am43 °FFog.3 mph100%29.84 "Hg2 mi
7:00 am44 °FFog.3 mph99%29.82 "Hg3 mi
6:00 am42 °FQuite cool.2 mph99%29.80 "Hg2 mi
5:00 am43 °FQuite cool.3 mph99%29.79 "Hg1 mi
4:00 am42 °FDuststorm.No wind98%29.79 "Hg1 mi
3:00 am43 °FFog.5 mph99%29.78 "Hg2 mi
2:00 am42 °FFog.5 mph98%29.78 "Hg1 mi
1:00 am43 °FQuite cool.3 mph99%29.78 "Hg1 mi
12:00 am43 °FDuststorm.5 mph99%29.77 "Hg0 mi
11:00 pm
Sat, Nov 16
44 °FFog.5 mph99%29.76 "Hg1 mi
10:00 pm44 °FFog.3 mph99%29.75 "Hg1 mi
9:00 pm45 °FQuite cool.3 mph98%29.75 "Hg1 mi
8:00 pm45 °FLight rain. Overcast.3 mph99%29.75 "Hg1 mi
7:00 pm45 °FDrizzle. Overcast.5 mph97%29.74 "Hg1 mi
Weather by CustomWeather, © 2019

See weather overview